Messages of WXBOT - map view · info · telemetry · weather · raw · status · beacons · messages · bulletins · browse · moving · my account
Callsign:
Show:

Loading message packets...

APRS messages are stored for 14 days. It is possible to search using wildcards (*?) after a prefix.

2019-06-18 05:17:00 EDT: KC5FM>WXBOT: full
2019-06-18 05:17:02 EDT: WXBOT>KC5FM: Arkansas KS. Hazardous Weather Outlook, Today,A 30 percent chance o
2019-06-18 05:17:03 EDT: KC5FM>WXBOT: current
2019-06-18 05:17:07 EDT: WXBOT>KC5FM: f showers and thunderstorms, mainly after 3pm. Mostly cloudy, with
2019-06-18 05:17:12 EDT: WXBOT>KC5FM: a high near 83. Calm wind becoming south southeast 5 to 8 mph in t
2019-06-18 05:17:17 EDT: WXBOT>KC5FM: he morning.
2019-06-18 05:17:24 EDT: WXBOT>KC5FM: Currently at Winfield / Arkansas City, Strother Field, Temp:67 wind
2019-06-18 05:17:29 EDT: WXBOT>KC5FM: :160@3,fair
2019-06-18 06:30:01 EDT: WA1GOV-10>WXBOT: 02780
2019-06-18 06:30:05 EDT: WXBOT>WA1GOV-10: Taunton MA. Today,Showers and Patchy Fog 80% High 71
2019-06-18 10:48:20 EDT: VE2ZYD-7>WXBOT: ve2zyd
2019-06-18 10:48:27 EDT: WXBOT>VE2ZYD-7: Sorry, unable to get a forecast for location 45.86633/-74.08083
2019-06-18 10:49:24 EDT: VE2ZYD-7>WXBOT: ve2zyd
2019-06-18 10:49:31 EDT: WXBOT>VE2ZYD-7: Sorry, unable to get a forecast for location 45.86633/-74.08083
2019-06-18 10:53:43 EDT: VE2ZYD-7>WXBOT: ve2zyd,cwop
2019-06-18 10:53:50 EDT: WXBOT>VE2ZYD-7: No CWOP data available for station VE2CUZ-WX
2019-06-18 11:25:58 EDT: KC5FM>WXBOT: full
2019-06-18 11:26:03 EDT: WXBOT>KC5FM: Arkansas KS. Flood Warning, Today,A 30 percent chance of showers an
2019-06-18 11:26:04 EDT: KC5FM>WXBOT: current
2019-06-18 11:26:08 EDT: WXBOT>KC5FM: d thunderstorms, mainly after 3pm. Mostly cloudy, with a high near
2019-06-18 11:26:13 EDT: WXBOT>KC5FM: 83. South southeast wind 5 to 8 mph.
2019-06-18 11:26:20 EDT: WXBOT>KC5FM: Currently at Winfield / Arkansas City, Strother Field, Temp:74 wind
2019-06-18 11:26:25 EDT: WXBOT>KC5FM: :270@5,fair
2019-06-18 15:40:52 EDT: ND6Q-1>wxbot: 37882 tonight
2019-06-18 15:52:04 EDT: ND6Q-1>WXBOT: 37882 tonight
2019-06-18 15:52:12 EDT: WXBOT>ND6Q-1: Townsend TN. Hazardous Weather Outlook, Tonight,Chance T-storms the
2019-06-18 15:52:17 EDT: WXBOT>ND6Q-1: n Chance Showers and Patchy Fog 40% Low 68
2019-06-18 17:51:00 EDT: KI4AQD-7>WXBOT: current
2019-06-18 17:51:03 EDT: WXBOT>KI4AQD-7: Currently at Pueblo Memorial Airport, Temp:75 wind:170@7,partly clo
2019-06-18 17:51:08 EDT: WXBOT>KI4AQD-7: udy
2019-06-18 17:52:01 EDT: KI4AQD-7>WXBOT: current
2019-06-18 17:52:04 EDT: WXBOT>KI4AQD-7: Currently at Pueblo Memorial Airport, Temp:75 wind:170@7,partly clo
2019-06-18 17:52:09 EDT: WXBOT>KI4AQD-7: udy
2019-06-18 18:17:34 EDT: VA7WPG-6>WXBOT: Sorry, unable to get a forecast for location 49.32483/-124.26850
2019-06-18 18:18:21 EDT: WXBOT>VA7WPG-6: Sorry, unable to get a forecast for location 49.32483/-124.26850
2019-06-18 18:30:02 EDT: WA1GOV-10>WXBOT: 02780
2019-06-18 18:30:05 EDT: WXBOT>WA1GOV-10: Taunton MA. Tonight,Chance Rain and Patchy Fog 50% Low 61
2019-06-19 05:50:29 EDT: VK3LAC-9>WXBOT: 1
2019-06-19 05:50:36 EDT: WXBOT>VK3LAC-9: Sorry, unable to get a forecast for location -38.08333/145.08333
2019-06-19 05:57:59 EDT: VK3LAC-9>WXBOT: 1
2019-06-19 05:58:07 EDT: WXBOT>VK3LAC-9: Sorry, unable to get a forecast for location -38.08333/145.08333
2019-06-19 05:58:33 EDT: VK3LAC-9>WXBOT: cwop
2019-06-19 05:58:41 EDT: WXBOT>VK3LAC-9: EW1888 48,wind:calm,1027.6mbar,rh:58%,rain:1h:0.00in.,24h:0.12in.
2019-06-19 06:06:00 EDT: VK3LAC-9>WXBOT: 1
2019-06-19 06:06:07 EDT: WXBOT>VK3LAC-9: Sorry, unable to get a forecast for location -38.08333/145.08333
2019-06-19 06:06:34 EDT: VK3LAC-9>WXBOT: cwop
2019-06-19 06:06:41 EDT: WXBOT>VK3LAC-9: EW1888 47,wind:calm,1027.6mbar,rh:58%,rain:1h:0.00in.,24h:0.12in.
2019-06-19 06:30:02 EDT: WA1GOV-10>WXBOT: 02780
2019-06-19 06:30:06 EDT: WXBOT>WA1GOV-10: Taunton MA. Hazardous Weather Outlook, Today,Areas Fog then Mostly
2019-06-19 06:30:11 EDT: WXBOT>WA1GOV-10: Cloudy High 75
< previous
FAQ · Blog · Discussion group · Linking to aprs.fi · AIS sites · Service status · Database statistics · Advertising on aprs.fi · Technical details · API · Change log · Planned changes · Credits and thanks · Terms Of Service · iPhone/iPad APRS